Tucson Davis Monthan, AZ

8:42 AM MST on September 22, 2017 (GMT -0700)
Davis-Monthan Air Force Base

Weather History for KDMA - March, 2014

Change the Weather History Date:

Saturday, March 22, 2014

  Actual Average Record
Temperature  
Mean Temperature 64 °F -  
Max Temperature 80 °F 75 °F 90 °F (1990)
Min Temperature 49 °F 46 °F 26 °F (1955)
Growing Degree Days 14 (Base 50)    
Moisture  
Dew Point 19 °F    
Average Humidity 19    
Maximum Humidity 33    
Minimum Humidity 9    
Precipitation  
Precipitation 0.00 in - - ()
Sea Level Pressure  
Sea Level Pressure 29.90 in    
Wind  
Wind Speed 8 mph (SSW)    
Max Wind Speed 16 mph    
Max Gust Speed 18 mph    
Visibility 10 miles    
Events      
Averages and records for this station are not official NWS values.
T = Trace of Precipitation, MM = Missing Value Source: NWS Daily Summary

Daily Weather History Graph

Daily Weather History Graph

Search for Another Location

Airport or City:

Trip Planner

Search our weather history database for the weather conditions in past years. The results will help you decide how hot, cold, wet, or windy it might be!

Date:

Astronomy

Mar. 22, 2014 Rise Set
Actual Time 6:24 AM MST 6:36 PM MST
Civil Twilight 6:00 AM MST 7:00 PM MST
Nautical Twilight 5:31 AM MST 7:29 PM MST
Astronomical Twilight 5:02 AM MST 7:58 PM MST
Moon No Moon Rise 10:27 AM MST
Length of Visible Light 13h 00m
Length of Day
12h 11m
Waning Gibbous, 64% of the Moon is Illuminated
Mar 22
Waning Gibbous
Mar 23
Last Quarter
Mar 30
New
Apr 7
First Quarter
Apr 15
Full

Hourly Weather History & Observations

Time (MST) Temp. Dew Point Humidity Pressure Visibility Wind Dir Wind Speed Gust Speed Precip Events Conditions
12:58 AM 56.8 °F 15.4 °F 20% 29.86 in 10.0 mi ESE 8.1 mph - N/A   Clear
1:58 AM 52.9 °F 17.4 °F 25% 29.87 in 10.0 mi SSE 5.8 mph - N/A   Clear
2:58 AM 52.0 °F 19.2 °F 28% 29.86 in 10.0 mi SE 5.8 mph - N/A   Clear
3:58 AM 51.1 °F 19.2 °F 29% 29.94 in 10.0 mi SSE 8.1 mph - N/A   Clear
4:58 AM 49.5 °F 19.4 °F 31% 29.87 in 10.0 mi SE 8.1 mph - N/A   Clear
5:58 AM 49.1 °F 19.9 °F 32% 29.88 in 10.0 mi ESE 9.2 mph - N/A   Clear
6:58 AM 49.5 °F 21.0 °F 33% 29.91 in 10.0 mi ESE 8.1 mph - N/A   Clear
7:58 AM 61.3 °F 21.7 °F 22% 29.91 in 10.0 mi SE 6.9 mph - N/A   Clear
8:58 AM 66.9 °F 21.2 °F 18% 29.93 in 10.0 mi SE 4.6 mph - N/A   Clear
9:58 AM 71.1 °F 18.1 °F 13% 29.93 in 10.0 mi South 8.1 mph - N/A   Clear
10:58 AM 72.1 °F 17.2 °F 12% 29.93 in 10.0 mi SW 5.8 mph - N/A   Clear
11:58 AM 72.3 °F 19.2 °F 13% 29.91 in 10.0 mi Variable 5.8 mph - N/A   Clear
12:58 PM 75.7 °F 19.8 °F 12% 29.88 in 10.0 mi North 8.1 mph - N/A   Clear
1:58 PM 76.6 °F 18.9 °F 11% 29.87 in 10.0 mi Variable 6.9 mph - N/A   Clear
2:58 PM 79.9 °F 18.5 °F 10% 29.84 in 10.0 mi West 12.7 mph 18.4 mph N/A   Clear
3:08 PM 80.6 °F 15.8 °F 9% 29.93 in 10.0 mi SW 16.1 mph 18.4 mph N/A   Clear
3:58 PM 79.3 °F 18.7 °F 10% 29.83 in 10.0 mi NW 13.8 mph 18.4 mph N/A   Clear
4:58 PM 79.0 °F 18.0 °F 10% 29.84 in 10.0 mi NW 8.1 mph - N/A   Clear
5:46 PM 77.0 °F 19.4 °F 12% 29.93 in 10.0 mi NNW 15.0 mph - N/A   Clear
5:58 PM 76.5 °F 18.7 °F 11% 29.86 in 10.0 mi NW 12.7 mph - N/A   Clear
6:58 PM 72.0 °F 18.9 °F 13% 29.88 in 10.0 mi NNW 8.1 mph - N/A   Clear
7:58 PM 68.9 °F 21.4 °F 17% 29.89 in 10.0 mi WNW 4.6 mph - N/A   Clear
8:58 PM 65.7 °F 21.9 °F 19% 29.91 in 10.0 mi West 5.8 mph - N/A   Clear
9:58 PM 61.0 °F 22.1 °F 22% 29.94 in 10.0 mi SW 5.8 mph - N/A   Clear
10:58 PM 57.9 °F 21.6 °F 25% 29.95 in 10.0 mi South 6.9 mph - N/A   Clear
11:58 PM 57.6 °F 22.3 °F 26% 29.96 in 10.0 mi SSE 6.9 mph - N/A   Clear